TimePDT,TemperatureF,Dew PointF,Humidity,Sea Level PressureIn,VisibilityMPH,Wind Direction,Wind SpeedMPH,Gust SpeedMPH,PrecipitationIn,Events,Conditions,WindDirDegrees,DateUTC
12:53 AM,75.0,41.0,29,29.88,10.0,East,8.1,-,N/A,,Clear,100,2013-07-20 07:53:00
1:53 AM,71.1,39.9,32,29.89,10.0,WSW,6.9,-,N/A,,Clear,250,2013-07-20 08:53:00
2:53 AM,72.0,39.9,31,29.90,10.0,SSE,9.2,-,N/A,,Clear,150,2013-07-20 09:53:00
3:53 AM,66.0,41.0,40,29.90,10.0,ESE,4.6,-,N/A,,Clear,110,2013-07-20 10:53:00
4:53 AM,72.0,42.1,34,29.90,10.0,South,8.1,-,N/A,,Clear,170,2013-07-20 11:53:00
5:53 AM,70.0,44.1,39,29.91,10.0,SSW,6.9,-,N/A,,Clear,200,2013-07-20 12:53:00
6:53 AM,73.0,43.0,34,29.93,10.0,SSE,4.6,-,N/A,,Clear,150,2013-07-20 13:53:00
7:53 AM,75.9,45.0,33,29.93,10.0,SW,3.5,-,N/A,,Clear,220,2013-07-20 14:53:00
8:53 AM,80.1,45.0,29,29.93,10.0,SSW,5.8,-,N/A,,Clear,200,2013-07-20 15:53:00
9:53 AM,82.0,45.0,27,29.92,10.0,Variable,5.8,-,N/A,,Clear,0,2013-07-20 16:53:00
10:53 AM,84.9,44.1,24,29.91,10.0,SSW,4.6,-,N/A,,Clear,200,2013-07-20 17:53:00
11:53 AM,88.0,45.0,22,29.89,10.0,SW,9.2,-,N/A,,Clear,220,2013-07-20 18:53:00
12:53 PM,91.9,41.0,17,29.87,10.0,Variable,4.6,-,N/A,,Clear,0,2013-07-20 19:53:00
1:53 PM,95.0,39.9,15,29.85,10.0,SW,8.1,-,N/A,,Clear,220,2013-07-20 20:53:00
2:53 PM,97.0,36.0,12,29.83,10.0,West,10.4,-,N/A,,Clear,260,2013-07-20 21:53:00
3:53 PM,98.1,26.1,8,29.81,10.0,WSW,5.8,-,N/A,,Clear,250,2013-07-20 22:53:00
4:53 PM,99.0,10.9,4,29.78,10.0,SW,9.2,-,N/A,,Clear,230,2013-07-20 23:53:00
5:53 PM,98.1,28.0,8,29.77,10.0,SW,9.2,-,N/A,,Clear,230,2013-07-21 00:53:00
6:53 PM,97.0,28.0,9,29.76,10.0,West,8.1,-,N/A,,Clear,270,2013-07-21 01:53:00
7:53 PM,93.9,28.0,10,29.76,10.0,West,4.6,-,N/A,,Clear,270,2013-07-21 02:53:00
8:53 PM,86.0,33.1,15,29.76,10.0,ESE,3.5,-,N/A,,Clear,110,2013-07-21 03:53:00
9:53 PM,77.0,37.9,24,29.77,10.0,East,9.2,-,N/A,,Clear,100,2013-07-21 04:53:00
10:53 PM,75.0,37.0,25,29.78,10.0,East,8.1,-,N/A,,Clear,100,2013-07-21 05:53:00
11:53 PM,75.9,33.1,21,29.79,10.0,South,12.7,-,N/A,,Clear,180,2013-07-21 06:53:00